sat.trackr.live / text

‹ back to catalog

STARLINK-36116

NORAD 66948 · 2025-286Z

PAYLOAD ACTIVE UNKNOWN

§ Identity

Operator
Country
US
Launch date
2025-12-07
Launch site
AFWTR
Launch vehicle
Mass (kg)
RCS (m²)

Purposes: comms

External: N2YO · Heavens-Above · Gunter

§ Orbital elements

Epoch: 2026-09-20T10:30:04.381344Z

Period
93.85 min
Inclination
53.1595°
Eccentricity
0.0001505
Mean motion
15.34411629 rev/d
Perigee alt
461.6 km
Apogee alt
463.7 km
Semi-major
6,840.8 km
B*
5.4902e-4
RAAN
170.3116°
Arg perigee
88.3193°
Mean anomaly
271.7982°
Rev number
4,527

§ Raw data

STARLINK-361161 66948U 25286Z   26263.43755071  .00018225  00000+0  54902-3 0  99972 66948  53.1595 170.3116 0001505  88.3193 271.7982 15.34411629 45275

JSON: /api/v1/satellites/66948 · /tle

For live sub-satellite position, see the globe view (requires WebGL).

§ Visibility from observer

Set your observer location to see the next 7 days of passes ≥ 10°. The values pass through the URL so the page stays shareable.

No JS? Fill the form by hand. The geolocation button needs JavaScript.